�_�ʐ�͌���@�Y���u�C�̈ړ���,,,,,,,,,,,,
�@,Time,Time int.,,Lat.,,Long.,,Distance,,Direction,Speed,
Date(yy/mm/dd),(hh:mm),(hour),(min),(deg),(min),(deg),(min),(miles),(meter),(deg),(m/s),(knots)
2004/8/29,9:40,,,36,45.954,137,13.17,,,,,
2004/8/29,9:45,0,5,36,45.972,137,13.152,0.03,47.14,315,0.16,0.31
2004/8/29,9:50,0,5,36,45.996,137,13.152,0.02,44.45,0,0.15,0.29
2004/8/29,9:55,0,5,36,46.002,137,13.14,0.01,24.85,296.6,0.08,0.16
2004/8/29,10:00,0,5,36,46.02,137,13.122,0.03,47.14,315,0.16,0.31
2004/8/29,10:05,0,5,36,46.038,137,13.116,0.02,35.14,341.6,0.12,0.23
2004/8/29,10:10,0,5,36,46.056,137,13.074,0.05,84.63,293.2,0.28,0.55
2004/8/29,10:15,0,5,36,46.056,137,13.044,0.03,55.56,270,0.19,0.36
2004/8/29,10:20,0,5,36,46.074,137,13.002,0.05,84.63,293.2,0.28,0.55
2004/8/29,10:25,0,5,36,46.092,137,12.978,0.03,55.56,306.9,0.19,0.36
2004/8/29,10:30,0,5,36,46.098,137,12.954,0.02,45.82,284,0.15,0.3
2004/8/29,10:40,0,10,36,46.116,137,12.882,0.07,137.45,284,0.23,0.45
2004/8/29,10:45,0,5,36,46.104,137,12.852,0.03,59.84,248.2,0.2,0.39
2004/8/29,10:55,0,10,36,46.092,137,12.81,0.04,80.9,254.1,0.13,0.26
2004/8/29,11:05,0,10,36,46.056,137,12.762,0.06,111.12,233.1,0.19,0.36
2004/8/29,11:15,0,10,36,46.044,137,12.714,0.05,91.63,256,0.15,0.3
2004/8/29,11:25,0,10,36,46.008,137,12.684,0.05,86.79,219.8,0.14,0.28
2004/8/29,11:30,0,5,36,45.984,137,12.66,0.03,62.86,225,0.21,0.41
2004/8/29,11:40,0,10,36,45.96,137,12.606,0.06,109.44,246,0.18,0.35
2004/8/29,11:45,0,5,36,45.954,137,12.576,0.03,56.66,258.7,0.19,0.37
2004/8/29,11:50,0,5,36,45.936,137,12.546,0.03,64.79,239,0.22,0.42
2004/8/29,11:55,0,5,36,45.918,137,12.528,0.03,47.14,225,0.16,0.31
2004/8/29,12:00,0,5,36,45.912,137,12.498,0.03,56.66,258.7,0.19,0.37


�A,Time,Time int.,,Lat.,,Long.,,Distance,,Direction,Speed,
Date(yy/mm/dd),(hh:mm),(hour),(min),(deg),(min),(deg),(min),(miles),(meter),(deg),(m/s),(knots)
2004/8/29,12:15,,,36,45.93,137,13.254,,,,,
2004/8/29,12:20,0,5,36,45.954,137,13.236,0.03,55.56,323.1,0.19,0.36
2004/8/29,12:25,0,5,36,45.972,137,13.206,0.03,64.79,301,0.22,0.42
2004/8/29,12:30,0,5,36,45.99,137,13.188,0.03,47.14,315,0.16,0.31
2004/8/29,12:35,0,5,36,46.008,137,13.188,0.02,33.34,0,0.11,0.22
2004/8/29,12:40,0,5,36,46.038,137,13.17,0.03,64.79,329,0.22,0.42
2004/8/29,12:45,0,5,36,46.044,137,13.164,0.01,15.71,315,0.05,0.1
2004/8/29,12:50,0,5,36,46.056,137,13.152,0.02,31.43,315,0.1,0.2
2004/8/29,12:55,0,5,36,46.062,137,13.116,0.04,67.59,279.5,0.23,0.44
2004/8/29,13:05,0,10,36,46.08,137,13.062,0.06,105.42,288.4,0.18,0.34
2004/8/29,13:10,0,5,36,46.086,137,13.032,0.03,56.66,281.3,0.19,0.37
2004/8/29,13:20,0,10,36,46.092,137,12.984,0.05,89.59,277.1,0.15,0.29
2004/8/29,13:25,0,5,36,46.086,137,12.942,0.04,78.57,261.9,0.26,0.51
2004/8/29,13:30,0,5,36,46.104,137,12.906,0.04,74.54,296.6,0.25,0.48
2004/8/29,13:35,0,5,36,46.098,137,12.858,0.05,89.59,262.9,0.3,0.58
2004/8/29,13:40,0,5,36,46.104,137,12.84,0.02,35.14,288.4,0.12,0.23


�B,Time,Time int.,,Lat.,,Long.,,Distance,,Direction,Speed,
Date(yy/mm/dd),(hh:mm),(hour),(min),(deg),(min),(deg),(min),(miles),(meter),(deg),(m/s),(knots)
2004/8/29,9:45,,,36,45.966,137,13.332,,,,,
2004/8/29,9:50,0,5,36,46.008,137,13.278,0.07,126.7,307.9,0.42,0.82
2004/8/29,9:55,0,5,36,46.032,137,13.224,0.06,109.44,294,0.36,0.71
2004/8/29,10:00,0,5,36,46.08,137,13.188,0.06,111.12,323.1,0.37,0.72
2004/8/29,10:10,0,10,36,46.116,137,13.122,0.08,139.23,298.6,0.23,0.45
2004/8/29,10:15,0,5,36,46.134,137,13.08,0.05,84.63,293.2,0.28,0.55
2004/8/29,10:25,0,10,36,46.164,137,13.008,0.08,144.46,292.6,0.24,0.47
2004/8/29,10:30,0,5,36,46.182,137,12.972,0.04,74.54,296.6,0.25,0.48
2004/8/29,10:40,0,10,36,46.194,137,12.912,0.06,113.32,281.3,0.19,0.37
2004/8/29,10:45,0,5,36,46.194,137,12.888,0.02,44.45,270,0.15,0.29
2004/8/29,10:55,0,10,36,46.212,137,12.834,0.06,105.42,288.4,0.18,0.34
2004/8/29,11:00,0,5,36,46.206,137,12.816,0.02,35.14,251.6,0.12,0.23
2004/8/29,11:05,0,5,36,46.206,137,12.798,0.02,33.34,270,0.11,0.22
2004/8/29,11:10,0,5,36,46.2,137,12.792,0.01,15.71,225,0.05,0.1
2004/8/29,11:15,0,5,36,46.194,137,12.768,0.02,45.82,256,0.15,0.3
2004/8/29,11:20,0,5,36,46.2,137,12.756,0.01,24.85,296.6,0.08,0.16
2004/8/29,11:25,0,5,36,46.194,137,12.738,0.02,35.14,251.6,0.12,0.23
2004/8/29,11:30,0,5,36,46.17,137,12.726,0.03,49.69,206.6,0.17,0.32
2004/8/29,11:35,0,5,36,46.158,137,12.702,0.03,49.69,243.4,0.17,0.32
2004/8/29,11:40,0,5,36,46.146,137,12.678,0.03,49.69,243.4,0.17,0.32
2004/8/29,11:45,0,5,36,46.134,137,12.654,0.03,49.69,243.4,0.17,0.32
2004/8/29,11:55,0,10,36,46.086,137,12.57,0.1,179.18,240.3,0.3,0.58
2004/8/29,12:00,0,5,36,46.044,137,12.528,0.06,110,225,0.37,0.71
2004/8/29,12:05,0,5,36,46.038,137,12.48,0.05,89.59,262.9,0.3,0.58


�C,Time,Time int.,,Lat.,,Long.,,Distance,,Direction,Speed,
Date(yy/mm/dd),(hh:mm),(hour),(min),(deg),(min),(deg),(min),(miles),(meter),(deg),(m/s),(knots)
2004/8/29,12:15,,,36,45.96,137,13.494,,,,,
2004/8/29,12:20,0,5,36,45.978,137,13.476,0.03,47.14,315,0.16,0.31
2004/8/29,12:25,0,5,36,46.02,137,13.452,0.05,89.59,330.3,0.3,0.58
2004/8/29,12:30,0,5,36,46.044,137,13.44,0.03,49.69,333.4,0.17,0.32
2004/8/29,12:40,0,10,36,46.104,137,13.428,0.06,113.32,348.7,0.19,0.37
2004/8/29,12:50,0,10,36,46.158,137,13.326,0.12,213.74,297.9,0.36,0.69
2004/8/29,12:55,0,5,36,46.182,137,13.29,0.04,80.13,303.7,0.27,0.52
2004/8/29,13:05,0,10,36,46.188,137,13.152,0.14,255.82,272.5,0.43,0.83
2004/8/29,13:10,0,5,36,46.194,137,13.08,0.07,133.81,274.8,0.45,0.87
2004/8/29,13:15,0,5,36,46.2,137,13.026,0.05,100.62,276.3,0.34,0.65
2004/8/29,13:20,0,5,36,46.194,137,12.936,0.09,167.05,266.2,0.56,1.08
2004/8/29,13:25,0,5,36,46.206,137,12.888,0.05,91.63,284,0.31,0.59
2004/8/29,13:30,0,5,36,46.206,137,12.834,0.05,100.01,270,0.33,0.65
2004/8/29,13:35,0,5,36,46.2,137,12.768,0.07,122.74,264.8,0.41,0.8
2004/8/29,13:45,0,10,36,46.17,137,12.672,0.1,186.27,252.6,0.31,0.6
2004/8/29,13:50,0,5,36,46.158,137,12.612,0.06,113.32,258.7,0.38,0.73
2004/8/29,13:55,0,5,36,46.146,137,12.57,0.04,80.9,254.1,0.27,0.52
2004/8/29,14:00,0,5,36,46.122,137,12.492,0.08,151.14,252.9,0.5,0.98
2004/8/29,14:10,0,10,36,46.11,137,12.444,0.05,91.63,256,0.15,0.3
2004/8/29,14:20,0,10,36,46.08,137,12.372,0.08,144.46,247.4,0.24,0.47
2004/8/29,14:25,0,5,36,46.068,137,12.366,0.01,24.85,206.6,0.08,0.16
2004/8/29,14:30,0,5,36,46.056,137,12.318,0.05,91.63,256,0.31,0.59
2004/8/29,14:40,0,10,36,46.038,137,12.24,0.08,148.25,257,0.25,0.48
